Location: Unspecified
(0.0000°N, 0.0000°E)
Time: 02:01:11
(UTC+00:00)

DMSP B5D2-3 - Visible Passes

Search period start: 19 April 2024 00:00
Search period end: 29 April 2024 00:00
Orbit: 819 x 836 km, 98.7° (Epoch: 18 April)

Date Brightness Start Highest point End Pass type
(mag) Time Alt. Az. Time Alt. Az. Time Alt. Az.
19 Apr 8.4 04:46:12 10° ESE 04:49:08 15° ENE 04:52:03 10° NE visible
19 Apr 8.7 19:08:07 10° WNW 19:09:48 11° WNW 19:11:28 10° W visible
20 Apr 8.1 18:47:33 10° NNW 18:51:20 20° WNW 18:55:08 10° WSW visible
21 Apr 7.3 18:28:08 10° NNW 18:32:52 32° WNW 18:37:37 10° SW visible
22 Apr 6.3 05:28:27 10° SSE 05:33:39 50° ENE 05:38:51 10° N visible
23 Apr 7.3 05:10:30 10° SE 05:15:10 30° ENE 05:19:50 10° NNE visible
24 Apr 8.2 04:53:04 10° ESE 04:56:42 18° ENE 05:00:20 10° NE visible
25 Apr 8.8 04:37:11 10° E 04:38:15 11° ENE 04:39:19 10° ENE visible
25 Apr 8.4 18:55:45 10° NW 18:58:53 16° WNW 19:02:03 10° WSW visible
26 Apr 7.6 18:36:01 10° NNW 18:40:25 26° WNW 18:44:51 10° SW visible
27 Apr 6.6 18:16:53 10° N 18:21:56 43° WNW 18:27:01 10° SSW visible
28 Apr 7.0 05:17:46 10° SE 05:22:43 37° ENE 05:27:39 10° N visible
